Location: Fouillouse
(44.4584°N, 6.0032°E)
Time: 12:57:49
(UTC+00:00)

Daily predictions for brighter satellites

Satellite Brightness Start Highest point End
(mag) Time Altitude Azimuth Time Altitude Azimuth Time Altitude Azimuth
NOSS 3-4 (A) 4.2 19:34:12 10° NNW 19:40:49 56° NE 19:48:34 10° SE
Cosmos 2322 Rocket 3.0 19:35:34 10° NNW 19:40:53 39° ENE 19:46:10 10° SE
BREEZE-M DEB (TANK) 3.2 19:34:20 10° SW 19:40:56 46° SSE 19:43:30 10° ENE
NOSS 3-4 (C) 4.2 19:34:51 10° NNW 19:41:29 56° NE 19:49:14 10° SE
Cosmos 1758 Rocket 3.9 19:40:42 10° N 19:45:02 51° ENE 19:49:21 10° SSE
Cosmos 2082 Rocket 3.8 19:39:54 10° SW 19:45:17 42° WNW 19:50:42 10° NNE
Tiangong -0.1 19:45:34 10° S 19:47:02 13° SSE 19:48:13 11° SE
USA 186 3.1 19:49:50 11° ESE 19:51:40 19° ENE 19:53:43 10° NNE
ISS -1.8 19:49:32 10° NW 19:52:24 25° N 19:55:15 10° ENE
Cosmos 2061 Rocket 4.0 19:46:39 10° S 19:52:53 86° E 19:59:15 10° N
MetOp-B 4.2 19:50:46 10° SSE 19:56:07 85° ENE 20:01:30 10° NNW
Cosmos 2098 Rocket 4.0 19:52:30 10° SSE 19:56:18 27° E 19:59:40 10° NNE
Cosmos 2228 4.1 19:54:09 10° SSW 19:58:05 45° WNW 20:02:02 10° N
Okean-O 3.1 19:57:01 11° SE 20:00:57 44° ENE 20:05:07 10° N
DNEPR-1 R/B 4.5 19:56:18 10° NNW 20:01:59 79° NE 20:08:19 13° SE
ERS-1 Rocket 3.2 19:57:18 10° S 20:02:17 72° WSW 20:07:19 10° NNW
Meteor 1-31 Rocket 4.0 20:00:23 10° SSW 20:03:34 35° W 20:06:45 10° NNW
Cosmos 2233 Rocket 4.4 19:58:21 10° SSW 20:04:28 66° W 20:10:36 10° N
Helios 1A Rocket 2.6 20:02:44 10° N 20:05:51 66° WNW 20:08:57 10° SSW
Cosmos 1763 Rocket 4.1 20:01:10 10° SSE 20:05:55 35° ESE 20:10:41 10° NE
Ariane Rocket 4.4 20:02:49 11° ESE 20:06:29 24° ENE 20:10:28 10° NNE
Cosmos 1602 Rocket 3.8 20:03:47 10° N 20:08:01 50° ENE 20:11:35 14° SSE
Cosmos 1891 Rocket 4.4 20:04:39 10° S 20:10:39 67° E 20:16:38 10° NNE
Spot 2 Rocket 3.5 20:06:25 11° SSE 20:11:09 66° ENE 20:16:10 10° N
ADEOS 3.7 20:07:06 10° SSE 20:12:18 81° WSW 20:17:33 10° NNW
Cosmos 2278 3.7 20:07:05 10° NNW 20:12:50 90° SSW 20:17:55 13° SSE
SL-16 R/B 2.5 20:09:16 10° NNW 20:14:54 68° WSW 20:20:20 11° SSE
CZ-4 R/B 3.1 20:12:08 10° SSW 20:15:15 27° W 20:18:25 10° NW
Cosmos 1933 3.1 20:11:51 10° S 20:15:38 86° E 20:19:27 10° N
Nadezhda 4 Rocket 4.4 20:15:53 10° N 20:21:45 46° ENE 20:26:14 17° SE
Cosmos 1626 Rocket 4.2 20:18:43 10° NNW 20:23:01 57° W 20:27:20 10° S
BREEZE-M DEB 3.9 20:20:18 10° SW 20:24:49 49° SSE 20:30:56 10° ENE
GEOS 3 Rocket 3.8 20:21:58 16° SSE 20:26:16 77° SW 20:31:40 10° NW
Meteor 1-5 Rocket 4.5 20:20:39 10° N 20:26:26 60° ENE 20:30:57 17° SSE
DELTA 2 R/B (1) 4.5 20:24:09 10° W 20:29:08 34° SSW 20:32:18 19° SSE
YAOGAN 11 4.1 20:25:32 10° NNE 20:30:00 76° ESE 20:34:29 10° S
CZ-2C R/B 4.1 20:30:25 13° ENE 20:30:51 13° ENE 20:32:19 10° NE
Meteor 2-10 4.3 20:28:43 10° N 20:34:26 64° ENE 20:38:23 20° SSE
Cosmos 1805 2.6 20:34:20 10° N 20:37:36 83° E 20:39:14 27° SSE
Cosmos 1606 Rocket 3.5 20:35:46 17° S 20:38:59 63° E 20:43:15 10° NNE
Cosmos 2297 Rocket 4.2 20:43:40 11° E 20:43:40 11° E 20:44:55 10° E
Cosmos 1726 Rocket 3.6 20:41:36 25° SSE 20:43:36 48° E 20:47:31 10° NNE
SPOT 3 Rocket 3.6 20:40:43 22° SSE 20:43:59 64° ENE 20:49:04 10° N
Cosmos 1777 Rocket 4.2 20:43:16 10° NNW 20:48:28 69° WSW 20:52:00 20° S
Terra 3.6 20:45:24 10° SSW 20:49:24 28° W 20:53:26 10° NW
USA 290 3.6 20:46:38 10° SW 20:49:35 38° WNW 20:52:33 10° N
Cosmos 2360 Rocket 2.4 20:43:59 10° NNW 20:49:38 70° WSW 20:53:26 21° S
Cosmos 540 Rocket 3.4 20:45:50 10° SSW 20:50:57 79° ESE 20:56:07 10° NNE
USA 245 4.2 20:49:04 21° SSE 20:53:00 82° ENE 20:58:18 10° N
Cosmos 1707 3.3 20:54:00 25° ENE 20:54:00 25° ENE 20:55:56 10° NNE
Cosmos 2333 Rocket 3.4 20:49:57 10° NW 20:55:08 37° WSW 20:59:46 13° SSW
Cosmos 1833 4.2 20:50:38 10° SSW 20:56:17 82° WNW 21:01:57 10° NNE
Cosmos 2219 Rocket 2.2 20:53:57 10° NNW 20:59:38 88° ENE 21:02:49 28° SSE
Okean 1 3.0 20:57:52 27° S 20:59:43 85° W 21:03:19 10° N
USA 306 3.9 20:59:01 10° NNW 21:00:12 13° N 21:00:36 12° NNE
Cosmos 1503 Rocket 4.2 20:59:19 10° NNW 21:04:26 65° WSW 21:07:20 25° S
CZ-4B R/B 2.4 21:05:43 42° S 21:06:47 79° WSW 21:10:19 10° NNW
Okean O Rocket 2.9 21:06:31 14° SSW 21:09:39 33° W 21:13:34 10° NNW
Cosmos 1464 Rocket 4.4 21:13:09 10° SSW 21:19:13 61° WNW 21:25:22 10° N
USA 186 3.9 21:19:56 13° WSW 21:20:56 15° W 21:22:42 10° NW
Meteor 2-2 Rocket 4.3 21:18:36 31° SSE 21:21:22 66° E 21:27:08 10° NNE
Cosmos 1354 Rocket 4.1 21:17:01 10° NNW 21:22:13 67° WSW 21:24:32 33° S
Tiangong 0.6 21:20:23 10° SW 21:20:32 11° SW 21:20:32 11° SW
Cosmos 2322 Rocket 3.4 21:19:45 10° NW 21:24:48 34° WSW 21:28:11 18° SSW
Aureole 1 Rocket 4.1 21:22:13 10° NNW 21:28:31 88° ENE 21:32:02 33° SSE
ISS -3.7 21:26:15 10° WNW 21:29:36 71° NNE 21:29:48 67° ENE
Cosmos 1937 Rocket 4.3 21:26:45 10° N 21:31:31 37° ENE 21:33:14 29° ESE
Cosmos 468 Rocket 4.0 21:28:06 21° SSW 21:31:43 84° WNW 21:37:00 10° NNE
RESURS DK-1 2.5 21:29:12 10° NNW 21:33:07 55° ENE 21:33:43 48° E
Cosmos 1470 3.7 21:31:35 10° NNE 21:34:04 28° ENE 21:34:04 28° ENE
Cosmos 1076 Rocket 4.1 21:30:25 10° NNW 21:34:32 50° W 21:35:59 34° SSW
Cosmos 1842 3.7 21:38:11 37° NE 21:38:11 37° NE 21:40:26 10° NNE
Cosmos 1092 Rocket 3.9 21:31:21 10° N 21:37:34 83° E 21:40:16 37° SSE
Cosmos 44 3.7 21:34:23 10° NW 21:39:40 59° WSW 21:41:15 41° S
Cosmos 1536 2.4 21:38:46 10° N 21:42:29 85° E 21:42:39 80° SE
Cosmos 1953 Rocket 4.0 21:38:46 10° NNW 21:42:59 53° W 21:44:13 39° SW
Cosmos 2237 Rocket 3.4 21:39:25 10° N 21:44:27 31° NE 21:46:58 22° E
Ariane Rocket 3.7 21:42:53 29° SSW 21:45:03 47° W 21:49:57 10° NNW
Cosmos 1766 3.2 21:42:55 10° NNW 21:45:53 56° WNW 21:45:53 56° WNW
Cosmos 1975 3.6 21:45:41 10° N 21:48:47 34° ENE 21:48:47 34° ENE
IKONOS-2 4.5 21:47:39 10° NNE 21:51:43 58° E 21:51:43 58° E
TSX-5 3.7 21:48:56 10° NW 21:51:55 60° W 21:51:55 60° W
Cosmos-2242 3.7 21:52:27 33° SW 21:53:51 47° WNW 21:57:50 10° N
Cosmos 2227 Rocket 3.9 21:54:29 18° E 21:54:29 18° E 21:57:35 10° ENE
Cosmos 2263 Rocket 4.4 21:55:44 10° E 21:55:44 10° E 21:55:47 10° E
Helios 1A 2.9 21:56:52 10° NNE 22:00:30 64° ENE 22:00:30 64° ENE
Cosmos 2058 Rocket 3.7 21:59:54 35° SW 22:01:17 49° WNW 22:05:30 10° N
CZ-2C R/B 4.2 22:01:58 20° WNW 22:01:58 20° WNW 22:03:36 10° NW
Lacrosse 4 Rocket 2.7 22:05:12 27° ENE 22:05:12 27° ENE 22:07:30 10° NE
KORONAS-FOTON 4.4 22:05:12 42° W 22:05:13 42° WNW 22:08:29 10° N
Cosmos 2279 Rocket 3.9 22:05:26 43° S 22:07:40 84° E 22:13:58 10° N
COSMOS 2428 2.6 22:02:20 10° NNW 22:08:03 82° WSW 22:09:28 53° SSE
BlueWalker 3 3.3 22:13:25 28° NE 22:13:25 28° NE 22:15:16 10° NE
Cosmos 1898 Rocket 3.5 22:08:08 10° NNW 22:13:20 72° WSW 22:14:18 57° SSW
Cosmos 2221 2.3 22:19:53 87° NW 22:19:53 87° NW 22:24:05 10° N
Cosmos 1634 Rocket 4.4 22:16:56 29° SW 22:20:01 56° WNW 22:26:08 10° N
Cosmos 841 Rocket 3.9 22:23:30 34° SW 22:25:35 58° WNW 22:30:46 10° NNE
Cosmos 1238 Rocket 4.3 22:26:28 29° ENE 22:26:28 29° ENE 22:29:50 10° NNE
Cosmos 2297 Rocket 2.1 22:25:24 57° S 22:26:34 79° ESE 22:32:13 10° NNE
Helios 1B rocket 2.7 22:28:43 52° N 22:28:43 52° N 22:31:28 10° NNW
Cosmos 1271 Rocket 4.1 22:33:13 28° WNW 22:33:13 28° WNW 22:36:02 10° NNW
ARIANE 5 R/B 2.9 22:36:57 57° ENE 22:37:02 57° ENE 22:41:26 10° N
Cosmos 2266 Rocket 3.9 22:33:03 10° N 22:39:08 78° E 22:40:27 56° SSE
ALOS 2 3.0 22:40:36 51° ENE 22:40:37 51° ENE 22:44:54 10° N
Cosmos 2219 Rocket 4.3 22:40:03 10° WNW 22:42:44 14° W 22:44:30 12° WSW
Meteor 1-11 Rocket 3.5 22:41:31 10° NNW 22:47:08 83° W 22:47:57 66° S
NOSS 0 Rocket 4.1 22:41:35 10° NW 22:47:35 56° WSW 22:48:39 49° SSW
Meteor 1-10 Rocket 4.4 22:47:44 52° SSW 22:49:12 75° WNW 22:55:10 10° N
CZ-2C R/B 3.7 22:51:42 10° N 22:56:13 76° WNW 22:56:18 76° W
Meteor 1-27 Rocket 3.6 22:58:41 65° S 22:59:35 88° E 23:05:20 10° N
Cosmos 1812 Rocket 4.3 23:01:30 42° W 23:01:45 43° WNW 23:06:00 10° N
CZ-2C R/B 3.6 23:01:22 31° E 23:02:35 35° ENE 23:07:15 10° N
CZ-2C R/B 3.7 22:58:49 10° NNE 23:04:26 47° E 23:04:56 46° ESE
PSLV R/B 3.7 23:00:54 10° NNE 23:04:55 70° NE 23:04:55 70° NE
Spot 4 4.0 23:15:17 60° W 23:15:17 60° W 23:19:59 10° NNW
BREEZE-M R/B 4.0 23:09:33 10° WNW 23:15:53 85° SSW 23:18:09 40° SE
Alouette 2 Rocket 4.0 23:12:07 10° N 23:16:23 74° ENE 23:16:48 69° ESE
Meteor 2-20 Rocket 4.1 23:16:56 67° SSW 23:17:45 85° W 23:23:30 10° N
Cosmos 1932 4.5 23:16:32 53° SSW 23:18:17 90° N 23:24:54 10° NE
SL-16 R/B 2.9 23:15:01 10° NNW 23:20:33 48° ENE 23:22:18 36° ESE
Cosmos 2219 4.1 23:24:01 33° ESE 23:24:01 33° ESE 23:28:54 10° NE
USA 234 3.4 23:18:04 10° ENE 23:24:26 51° SE 23:24:53 50° SSE
Cosmos 2237 Rocket 2.7 23:23:16 10° NW 23:28:37 44° WSW 23:28:45 44° WSW
Cosmos 1842 Rocket 3.7 23:31:34 71° NNE 23:31:34 71° NNE 23:35:33 10° N
Meteor 2-10 Rocket 3.6 23:27:20 10° N 23:33:01 84° ENE 23:33:47 68° SSE
Cosmos 1980 4.4 23:28:03 10° NW 23:33:13 37° WSW 23:33:16 37° WSW
Cosmos 1655 Rocket 3.9 23:27:06 10° N 23:33:23 82° W 23:34:34 61° S
ATLAS 5 CENTAUR R/B 3.5 23:33:34 45° SE 23:34:34 49° ESE 23:49:16 10° NE
ATLAS 2AS CENTAUR R/B 4.0 23:29:22 10° NNW 23:35:35 36° NE 23:41:48 10° ESE
Cosmos 2227 Rocket 2.3 23:36:14 57° WSW 23:37:17 71° WNW 23:42:58 10° NNE
Cosmos 2263 Rocket 2.0 23:37:22 72° SSE 23:37:48 77° ESE 23:43:23 10° NNE
Lacrosse 4 Rocket 3.3 23:40:34 21° WNW 23:41:37 23° NW 23:44:55 10° N
MetOp-A 3.7 23:42:49 76° WNW 23:42:49 76° WNW 23:47:14 10° NNW
Cosmos 489 Rocket 4.5 23:42:31 58° SSE 23:43:34 69° ESE 23:49:53 10° NNE
Okean 3 Rocket 3.7 23:40:16 10° N 23:44:34 69° ENE 23:44:34 69° ENE
GP-B 4.2 23:41:42 10° NNW 23:45:31 35° WNW 23:45:31 35° WNW
Cosmos 1340 Rocket 4.0 23:42:14 10° N 23:45:21 34° ENE 23:45:21 34° ENE
BlueWalker 3 4.1 23:46:56 11° WNW 23:49:35 23° NNW 23:52:28 10° NE
CENTAUR R/B 3.3 23:52:51 29° ESE 23:52:56 29° ESE 23:58:19 10° NE
